K9MWM-1 Weather Reports


Display with metric or nautical units.
time (UTC)temp
F
wind
direction
speed
MPH
gust
MPH
rain 1hr
in
rain 24hr
in
rain mn
in
humidity
%
barometer
mb
20260509191840 76 316 1.0 6.0 0.00 0.00 0.00
20260509190816 76 321 1.0 5.0 0.00 0.00 0.00
20260509190302 75 319 0.0 6.0 0.00 0.00 0.00
20260509183657 75 340 0.0 7.0 0.00 0.00 0.00
20260509183144 76 317 1.0 8.0 0.00 0.00 0.00
20260509182119 76 328 3.0 5.0 0.00 0.00 0.00
20260509181606 75 328 0.0 3.0 0.00 0.00 0.00
20260509181053 75 326 5.0 8.0 0.00 0.00 0.00
20260509180540 75 323 0.0 0.0 0.00 0.00 0.00
20260509180028 75 330 1.0 5.0 0.00 0.00 0.00
20260509175515 75 328 0.0 6.0 0.00 0.00 0.00
20260509175002 76 299 0.0 3.0 0.00 0.00 0.00
20260509174449 76 292 0.0 4.0 0.00 0.00 0.00
20260509173936 76 323 0.0 6.0 0.00 0.00 0.00
20260509173423 76 327 0.0 6.0 0.00 0.00 0.00
20260509172910 76 320 0.0 9.0 0.00 0.00 0.00
20260509172357 76 329 0.0 6.0 0.00 0.00 0.00
20260509171845 76 316 2.0 6.0 0.00 0.00 0.00
20260509171332 76 315 2.0 6.0 0.00 0.00 0.00
20260509170819 76 320 1.0 4.0 0.00 0.00 0.00
20260509170306 76 325 0.0 1.0 0.00 0.00 0.00
20260509165753 76 324 0.0 6.0 0.00 0.00 0.00
20260509165241 76 335 0.0 3.0 0.00 0.00 0.00
20260509164728 76 321 0.0 2.0 0.00 0.00 0.00
20260509164215 76 11 0.0 0.0 0.00 0.00 0.00
20260509163702 76 337 0.0 0.0 0.00 0.00 0.00
20260509163149 76 326 0.0 0.0 0.00 0.00 0.00
20260509162637 75 247 0.0 0.0 0.00 0.00 0.00
20260509162123 75 342 0.0 0.0 0.00 0.00 0.00
20260509161610 74 256 0.0 0.0 0.00 0.00 0.00
20260509161058 74 138 0.0 0.0 0.00 0.00 0.00
20260509160545 74 135 0.0 0.0 0.00 0.00 0.00
20260509160032 73 9 0.0 0.0 0.00 0.00 0.00
20260509155519 73 356 0.0 0.0 0.00 0.00 0.00
20260509155006 72 320 0.0 0.0 0.00 0.00 0.00
20260509154454 72 221 0.0 0.0 0.00 0.00 0.00
20260509153941 72 150 0.0 0.0 0.00 0.00 0.00
20260509153428 72 337 0.0 0.0 0.00 0.00 0.00
20260509152915 72 144 0.0 0.0 0.00 0.00 0.00
20260509152402 71 22 0.0 0.0 0.00 0.00 0.00
20260509151849 69 357 0.0 0.0 0.00 0.00 0.00
20260509151336 69 183 0.0 0.0 0.00 0.00 0.00
20260509150823 68 343 0.0 0.0 0.00 0.00 0.00
20260509145758 67 337 0.0 0.0 0.00 0.00 0.00
20260509144732 65 149 0.0 0.0 0.00 0.00 0.00
20260509144219 65 129 0.0 0.0 0.00 0.00 0.00
20260509143707 64 152 0.0 0.0 0.00 0.00 0.00
20260509143153 63 154 0.0 0.0 0.00 0.00 0.00
20260509142641 61 147 0.0 0.0 0.00 0.00 0.00
20260509142128 58 128 0.0 0.0 0.00 0.00 0.00
20260509141615 55 115 0.0 0.0 0.00 0.00 0.00
20260509141102 54 337 0.0 0.0 0.00 0.00 0.00
20260509140549 53 337 0.0 0.0 0.00 0.00 0.00
20260509140037 51 93 0.0 0.0 0.00 0.00 0.00
20260509135524 49 337 0.0 0.0 0.00 0.00 0.00
20260509135011 49 161 0.0 0.0 0.00 0.00 0.00
20260509134458 48 247 0.0 0.0 0.00 0.00 0.00
20260509133945 48 77 0.0 0.0 0.00 0.00 0.00
20260509133432 49 337 0.0 0.0 0.00 0.00 0.00
20260509132919 46 0 0.0 0.0 0.00 0.00 0.00
20260509132406 42 337 0.0 0.0 0.00 0.00 0.00
20260509131854 40 337 0.0 0.0 0.00 0.00 0.00
20260509130828 40 112 0.0 0.0 0.00 0.00 0.00
20260509130315 40 337 0.0 0.0 0.00 0.00 0.00
20260509125802 40 337 0.0 0.0 0.00 0.00 0.00
20260509125250 40 337 0.0 0.0 0.00 0.00 0.00
20260509124737 40 270 0.0 0.0 0.00 0.00 0.00
20260509124224 40 337 0.0 0.0 0.00 0.00 0.00
20260509123711 40 337 0.0 0.0 0.00 0.00 0.00
20260509123158 40 0 0.0 0.0 0.00 0.00 0.00
20260509122645 40 131 0.0 0.0 0.00 0.00 0.00
20260509121619 40 337 0.0 0.0 0.00 0.00 0.00
20260509121107 40 33 0.0 0.0 0.00 0.00 0.00
20260509120554 40 337 0.0 0.0 0.00 0.00 0.00
20260509115528 40 337 0.0 0.0 0.00 0.00 0.00
20260509115015 40 337 0.0 0.0 0.00 0.00 0.00
20260509114503 40 337 0.0 0.0 0.00 0.00 0.00
20260509113950 40 337 0.0 0.0 0.00 0.00 0.00
20260509113437 41 90 0.0 0.0 0.00 0.00 0.00
20260509112924 41 337 0.0 0.0 0.00 0.00 0.00
20260509112411 41 0 0.0 0.0 0.00 0.00 0.00
20260509111858 41 337 0.0 0.0 0.00 0.00 0.00
20260509111345 41 135 0.0 0.0 0.00 0.00 0.00
20260509110832 42 337 0.0 0.0 0.00 0.00 0.00
20260509110320 42 103 0.0 0.0 0.00 0.00 0.00
20260509105807 42 85 0.0 0.0 0.00 0.00 0.00
20260509104741 41 303 0.0 0.0 0.00 0.00 0.00
20260509104228 41 151 0.0 0.0 0.00 0.00 0.00
20260509103716 42 60 0.0 0.0 0.00 0.00 0.00
20260509103203 42 90 0.0 0.0 0.00 0.00 0.00
20260509102650 42 337 0.0 0.0 0.00 0.00 0.00
20260509101624 43 0 0.0 0.0 0.00 0.00 0.00
20260509101111 43 4 0.0 0.0 0.00 0.00 0.00
20260509100558 43 135 0.0 0.0 0.00 0.00 0.00
20260509100046 43 63 0.0 0.0 0.00 0.00 0.00
20260509095533 43 23 0.0 0.0 0.00 0.00 0.00
20260509095020 44 49 0.0 0.0 0.00 0.00 0.00
20260509094507 44 328 0.0 0.0 0.00 0.00 0.00
20260509093954 44 33 0.0 0.0 0.00 0.00 0.00
20260509093441 44 337 0.0 0.0 0.00 0.00 0.00
20260509092929 45 337 0.0 0.0 0.00 0.00 0.00
20260509092416 45 247 0.0 0.0 0.00 0.00 0.00
20260509091903 45 355 0.0 0.0 0.00 0.00 0.00
20260509091350 46 34 0.0 0.0 0.00 0.00 0.00
20260509090837 46 337 0.0 0.0 0.00 0.00 0.00
20260509090324 47 225 0.0 0.0 0.00 0.00 0.00
20260509085811 47 34 0.0 0.0 0.00 0.00 0.00
20260509085259 48 90 0.0 0.0 0.00 0.00 0.00
20260509084746 48 112 0.0 0.0 0.00 0.00 0.00
20260509084233 48 135 0.0 0.0 0.00 0.00 0.00
20260509083720 49 202 0.0 0.0 0.00 0.00 0.00
20260509082654 49 141 0.0 0.0 0.00 0.00 0.00
20260509082142 49 37 0.0 0.0 0.00 0.00 0.00
20260509081118 49 337 0.0 0.0 0.00 0.00 0.00
20260509080603 48 337 0.0 0.0 0.00 0.00 0.00
20260509080050 48 202 0.0 0.0 0.00 0.00 0.00
20260509075537 48 22 0.0 0.0 0.00 0.00 0.00
20260509075024 49 135 0.0 0.0 0.00 0.00 0.00
20260509074512 49 337 0.0 0.0 0.00 0.00 0.00
20260509073959 49 202 0.0 0.0 0.00 0.00 0.00
20260509073446 49 211 0.0 0.0 0.00 0.00 0.00
20260509072933 49 337 0.0 0.0 0.00 0.00 0.00
20260509072420 49 105 0.0 0.0 0.00 0.00 0.00
20260509071907 49 90 0.0 0.0 0.00 0.00 0.00
20260509071354 49 337 0.0 0.0 0.00 0.00 0.00
20260509065816 50 337 0.0 0.0 0.00 0.00 0.00
20260509065306 51 58 0.0 0.0 0.00 0.00 0.00
20260509064750 51 252 0.0 0.0 0.00 0.00 0.00
20260509064237 52 91 0.0 0.0 0.00 0.00 0.00
20260509063725 52 337 0.0 0.0 0.00 0.00 0.00
20260509063212 53 337 0.0 0.0 0.00 0.00 0.00
20260509062659 53 309 0.0 0.0 0.00 0.00 0.00
20260509062146 54 241 0.0 0.0 0.00 0.00 0.00
20260509061633 54 78 0.0 0.0 0.00 0.00 0.00
20260509061120 55 260 0.0 0.0 0.00 0.00 0.00
20260509060607 55 100 0.0 0.0 0.00 0.00 0.00
20260509060055 55 337 0.0 0.0 0.00 0.00 0.00
20260509055542 55 348 0.0 0.0 0.00 0.00 0.00
20260509055029 55 81 0.0 0.0 0.00 0.00 0.00
20260509054516 55 337 0.0 0.0 0.00 0.00 0.00
20260509054003 55 337 0.0 0.0 0.00 0.00 0.00
20260509053451 55 337 0.0 0.0 0.00 0.00 0.00
20260509052938 55 348 0.0 0.0 0.00 0.00 0.00
20260509052425 55 337 0.0 0.0 0.00 0.00 0.00
20260509051912 55 337 0.0 0.0 0.00 0.00 0.00
20260509051359 56 87 0.0 0.0 0.00 0.00 0.00
20260509050846 56 270 0.0 0.0 0.00 0.00 0.00
20260509050333 56 0 0.0 0.0 0.00 0.00 0.00
20260509045821 57 11 0.0 0.0 0.00 0.00 0.00
20260509045308 57 213 0.0 0.0 0.00 0.00 0.00
20260509044755 57 337 0.0 0.0 0.00 0.00 0.00
20260509044242 58 100 0.0 0.0 0.00 0.00 0.00
20260509043729 58 19 0.0 0.0 0.00 0.00 0.00
20260509043216 58 125 0.0 0.0 0.00 0.00 0.00
20260509042704 58 337 0.0 0.0 0.00 0.00 0.00
20260509041639 58 337 0.0 0.0 0.00 0.00 0.00
20260509041125 58 247 0.0 0.0 0.00 0.00 0.00
20260509040612 58 213 0.0 0.0 0.00 0.00 0.00
20260509040059 58 137 0.0 0.0 0.00 0.00 0.00
20260509035546 59 337 0.0 0.0 0.00 0.00 0.00
20260509034521 59 1 0.0 0.0 0.00 0.00 0.00
20260509034008 60 337 0.0 0.0 0.00 0.00 0.00
20260509033455 59 135 0.0 0.0 0.00 0.00 0.00
20260509032430 59 142 0.0 0.0 0.00 0.00 0.00
20260509031917 59 337 0.0 0.0 0.00 0.00 0.00
20260509031404 59 135 0.0 0.0 0.00 0.00 0.00
20260509030851 60 9 0.0 0.0 0.00 0.00 0.00
20260509030338 60 43 0.0 0.0 0.00 0.00 0.00
20260509025825 61 199 0.0 0.0 0.00 0.00 0.00
20260509025312 61 112 0.0 0.0 0.00 0.00 0.00
20260509024800 62 225 0.0 0.0 0.00 0.00 0.00
20260509022709 64 252 0.0 0.0 0.00 0.00 0.00
20260509022156 64 163 0.0 0.0 0.00 0.00 0.00
20260509021643 64 78 0.0 0.0 0.00 0.00 0.00
20260509021130 66 135 0.0 0.0 0.00 0.00 0.00
20260509020617 67 135 0.0 0.0 0.00 0.00 0.00
20260509020104 67 336 1.0 3.0 0.00 0.00 0.00
20260509015551 67 319 0.0 0.0 0.00 0.00 0.00
20260509015038 68 326 0.0 2.0 0.00 0.00 0.00
20260509014526 69 325 0.0 0.0 0.00 0.00 0.00
20260509014013 70 335 0.0 0.0 0.00 0.00 0.00
20260509013500 71 316 0.0 0.0 0.00 0.00 0.00
20260509012949 73 335 0.0 0.0 0.00 0.00 0.00
20260509012434 73 328 0.0 0.0 0.00 0.00 0.00
20260509011922 73 319 0.0 3.0 0.00 0.00 0.00
20260509010856 70 331 0.0 0.0 0.00 0.00 0.00
20260509010343 69 315 0.0 0.0 0.00 0.00 0.00
20260509005830 70 320 0.0 4.0 0.00 0.00 0.00
20260509005318 70 322 0.0 5.0 0.00 0.00 0.00
20260509004804 72 316 0.0 4.0 0.00 0.00 0.00
20260509004252 73 324 0.0 3.0 0.00 0.00 0.00
20260509003226 78 317 1.0 6.0 0.00 0.00 0.00
20260509002713 80 297 0.0 2.0 0.00 0.00 0.00
20260509002201 81 299 0.0 4.0 0.00 0.00 0.00
20260509001647 80 295 0.0 6.0 0.00 0.00 0.00
20260509001135 80 303 5.0 9.0 0.00 0.00 0.00
20260509000622 79 310 0.0 0.0 0.00 0.00 0.00
20260509000109 80 299 0.0 4.0 0.00 0.00 0.00
20260508235557 82 308 0.0 0.0 0.00 0.00 0.00
20260508235043 81 294 1.0 4.0 0.00 0.00 0.00
20260508233505 81 300 0.0 5.0 0.00 0.00 0.00
20260508232952 80 301 0.0 0.0 0.00 0.00 0.00
20260508232439 80 310 0.0 3.0 0.00 0.00 0.00
20260508231927 81 302 0.0 5.0 0.00 0.00 0.00
20260508231413 82 297 0.0 1.0 0.00 0.00 0.00
20260508230901 83 300 0.0 7.0 0.00 0.00 0.00
20260508230348 82 295 0.0 4.0 0.00 0.00 0.00
20260508225835 81 295 0.0 5.0 0.00 0.00 0.00
20260508225322 80 310 0.0 6.0 0.00 0.00 0.00
20260508224809 81 298 0.0 10.0 0.00 0.00 0.00
20260508224256 83 296 0.0 0.0 0.00 0.00 0.00
20260508223743 83 298 0.0 1.0 0.00 0.00 0.00
20260508223231 83 303 0.0 5.0 0.00 0.00 0.00
20260508222718 83 305 0.0 5.0 0.00 0.00 0.00
20260508222205 82 297 0.0 4.0 0.00 0.00 0.00
20260508221652 82 300 0.0 5.0 0.00 0.00 0.00
20260508221139 84 292 0.0 4.0 0.00 0.00 0.00
20260508220114 82 296 1.0 14.0 0.00 0.00 0.00
20260508215601 82 294 0.0 7.0 0.00 0.00 0.00
20260508215048 82 315 0.0 6.0 0.00 0.00 0.00
20260508214535 82 304 0.0 3.0 0.00 0.00 0.00
20260508214022 81 317 0.0 5.0 0.00 0.00 0.00
20260508213509 80 323 0.0 5.0 0.00 0.00 0.00
20260508212957 79 327 2.0 6.0 0.00 0.00 0.00
20260508212444 79 307 2.0 7.0 0.00 0.00 0.00
20260508211931 80 333 0.0 1.0 0.00 0.00 0.00
20260508211418 78 327 0.0 0.0 0.00 0.00 0.00
20260508210905 78 328 0.0 1.0 0.00 0.00 0.00
20260508210353 78 316 0.0 4.0 0.00 0.00 0.00
20260508205840 78 318 0.0 8.0 0.00 0.00 0.00
20260508205327 77 329 2.0 8.0 0.00 0.00 0.00
20260508204814 77 306 3.0 12.0 0.00 0.00 0.00
20260508203748 76 326 0.0 4.0 0.00 0.00 0.00
20260508203235 76 315 0.0 6.0 0.00 0.00 0.00
20260508202722 77 319 0.0 14.0 0.00 0.00 0.00
20260508202210 77 325 0.0 6.0 0.00 0.00 0.00
20260508201657 76 325 0.0 0.0 0.00 0.00 0.00
20260508200631 76 327 4.0 6.0 0.00 0.00 0.00
20260508195606 76 321 0.0 8.0 0.00 0.00 0.00
20260508195053 76 315 0.0 7.0 0.00 0.00 0.00
20260508194540 76 318 0.0 3.0 0.00 0.00 0.00
20260508194027 76 316 0.0 3.0 0.00 0.00 0.00
20260508193514 76 315 0.0 5.0 0.00 0.00 0.00
20260508193001 76 308 0.0 4.0 0.00 0.00 0.00
20260508192448 76 337 0.0 0.0 0.00 0.00 0.00